Terminal Aerodrome Forecast
Issued by NWS

Home | Current Version | Previous Version | Text Only | Print | Product List | Glossary On
Versions: 1 2 3 4 5 6 7 8 9 10 11 12 13 14
000
FTUS44 KBMX 290538
TAFANB
TAF
KANB 290538Z 2906/3006 00000KT P6SM SKC
     FM291400 09005KT P6SM SKC
     FM292000 17007KT P6SM BKN060=

USA.gov is the U.S. government's official web portal to all federal, state and local government web resources and services.